Weather History for PHTO - March, 2014

Change the Weather History Date:

Wednesday, March 26, 2014

  Actual Average Record
Temperature  
Mean Temperature 73 °F 72 °F  
Max Temperature 80 °F 79 °F 87 °F (2003)
Min Temperature 65 °F 65 °F 56 °F (1955)
Degree Days  
Heating Degree Days 0 0  
Month to date heating degree days 0 0  
Since 1 July heating degree days 0 0  
Cooling Degree Days 8 7  
Month to date cooling degree days 198 179  
Year to date cooling degree days 656 549  
Growing Degree Days 22 (Base 50)    
Moisture  
Dew Point 70 °F    
Average Humidity 87    
Maximum Humidity 100    
Minimum Humidity 74    
Precipitation  
Precipitation 0.24 in 0.44 in 4.00 in (1974)
Month to date precipitation 13.36 11.18  
Year to date precipitation 21.59 30.00  
Snow  
Snow 0.00 in - - ()
Month to date snowfall 0.0  
Since 1 July snowfall 0.0  
Snow Depth 0.00 in    
Sea Level Pressure  
Sea Level Pressure 30.11 in    
Wind  
Wind Speed 6 mph (SSW)    
Max Wind Speed 15 mph    
Max Gust Speed 18 mph    
Visibility 9 miles    
Events Rain    
T = Trace of Precipitation, MM = Missing Value Source: NWS Daily Summary

Daily Weather History Graph

Daily Weather History Graph

Search for Another Location

Airport or City:

Trip Planner

Search our weather history database for the weather conditions in past years. The results will help you decide how hot, cold, wet, or windy it might be!

Date:

Astronomy

Mar. 26, 2014 Rise Set
Actual Time 6:18 AM HST 6:32 PM HST
Civil Twilight 5:56 AM HST 6:54 PM HST
Nautical Twilight 5:31 AM HST 7:20 PM HST
Astronomical Twilight 5:05 AM HST 7:46 PM HST
Moon 3:03 AM HST (3/26) 2:53 PM HST (3/26)
Length of Visible Light 12h 57m
Length of Day
12h 13m
Waning Crescent, 19% of the Moon is Illuminated
Mar 26
Waning Crescent
Mar 30
New
Apr 6
First Quarter
Apr 14
Full
Apr 21
Last Quarter

Hourly Weather History & Observations

Time (HST) Temp. Dew Point Humidity Pressure Visibility Wind Dir Wind Speed Gust Speed Precip Events Conditions
12:53 AM 68.0 °F 68.0 °F 100% 30.13 in 10.0 mi WSW 5.8 mph - N/A   Clear
1:53 AM 68.0 °F 66.9 °F 96% 30.11 in 10.0 mi SW 5.8 mph - N/A   Clear
2:53 AM 66.9 °F 66.9 °F 100% 30.09 in 10.0 mi WSW 3.5 mph - N/A   Mostly Cloudy
3:53 AM 66.9 °F 66.0 °F 97% 30.09 in 10.0 mi Calm Calm - N/A   Scattered Clouds
4:53 AM 66.9 °F 66.0 °F 97% 30.10 in 5.0 mi South 3.5 mph - 0.00 in Rain Light Rain
5:53 AM 66.0 °F 66.0 °F 100% 30.12 in 7.0 mi WSW 6.9 mph - 0.10 in   Mostly Cloudy
6:53 AM 64.9 °F 64.0 °F 97% 30.13 in 10.0 mi WSW 4.6 mph - N/A   Scattered Clouds
7:53 AM 70.0 °F 64.9 °F 84% 30.14 in 10.0 mi SW 5.8 mph - N/A   Scattered Clouds
8:53 AM 77.0 °F 68.0 °F 74% 30.16 in 10.0 mi Calm Calm - N/A   Partly Cloudy
9:53 AM 79.0 °F 69.1 °F 72% 30.16 in 10.0 mi East 8.1 mph - N/A   Scattered Clouds
10:53 AM 78.1 °F 71.1 °F 79% 30.15 in 10.0 mi East 8.1 mph - N/A   Mostly Cloudy
11:53 AM 73.0 °F 72.0 °F 96% 30.14 in 5.0 mi East 9.2 mph - 0.01 in Rain Light Rain
12:18 PM 72.0 °F 72.0 °F 100% 30.13 in 2.0 mi ESE 8.1 mph - 0.04 in Rain Rain
12:53 PM 73.0 °F 73.0 °F 100% 30.11 in 7.0 mi South 5.8 mph - 0.13 in Rain Light Rain
1:53 PM 75.9 °F 73.0 °F 91% 30.07 in 10.0 mi South 6.9 mph - 0.00 in   Overcast
2:53 PM 75.9 °F 71.1 °F 85% 30.05 in 10.0 mi SSE 9.2 mph - N/A   Mostly Cloudy
3:49 PM 78.8 °F 71.6 °F 78% 30.06 in 10.0 mi East 8.1 mph - N/A   Overcast
3:53 PM 77.0 °F 71.1 °F 82% 30.06 in 10.0 mi East 11.5 mph - N/A   Overcast
4:18 PM 75.9 °F 71.1 °F 85% 30.06 in 10.0 mi East 5.8 mph - 0.00 in Rain Light Rain
4:53 PM 75.9 °F 71.1 °F 85% 30.06 in 10.0 mi East 6.9 mph - 0.00 in   Scattered Clouds
5:53 PM 73.9 °F 71.1 °F 91% 30.07 in 10.0 mi Calm Calm - N/A   Mostly Cloudy
6:53 PM 73.0 °F 72.0 °F 96% 30.09 in 10.0 mi WSW 3.5 mph - N/A   Mostly Cloudy
7:53 PM 73.0 °F 72.0 °F 96% 30.10 in 10.0 mi WSW 4.6 mph - 0.03 in Rain Light Rain
8:02 PM 72.0 °F 72.0 °F 100% 30.11 in 10.0 mi WSW 3.5 mph - 0.00 in   Mostly Cloudy
8:10 PM 72.0 °F 72.0 °F 100% 30.11 in 10.0 mi West 3.5 mph - 0.00 in   Mostly Cloudy
8:53 PM 72.0 °F 71.1 °F 97% 30.12 in 10.0 mi West 3.5 mph - 0.00 in   Mostly Cloudy
9:35 PM 71.1 °F 70.0 °F 96% 30.13 in 10.0 mi WSW 5.8 mph - N/A   Scattered Clouds
9:53 PM 71.1 °F 70.0 °F 96% 30.13 in 10.0 mi Calm Calm - N/A   Mostly Cloudy
10:10 PM 71.1 °F 70.0 °F 96% 30.14 in 10.0 mi WSW 4.6 mph - 0.01 in Rain Light Rain
10:49 PM 69.8 °F 69.8 °F 100% 30.13 in 10.0 mi WSW 6.9 mph - 0.01 in   Mostly Cloudy
10:53 PM 70.0 °F 70.0 °F 100% 30.13 in 10.0 mi WSW 5.8 mph - 0.01 in   Mostly Cloudy
11:29 PM 69.1 °F 69.1 °F 100% 30.13 in 10.0 mi WSW 6.9 mph - N/A   Scattered Clouds
11:53 PM 69.1 °F 68.0 °F 96% 30.13 in 10.0 mi SW 5.8 mph - N/A   Partly Cloudy